| time (UTC) | temp C | wind direction | speed KPH | gust KPH | rain 1hr cm | rain 24hr cm | rain mn cm | humidity % | barometer mb |
| 20260504002538 | 11 | 196 | 1.6 | 8.0 | 0.00 | 0.00 | 0.00 | 66 | 1010.6 |
| 20260504002044 | 11 | 170 | 1.6 | 14.5 | 0.00 | 0.00 | 0.00 | 66 | 1010.7 |
| 20260504001551 | 11 | 193 | 6.4 | 19.3 | 0.00 | 0.00 | 0.00 | 65 | 1010.8 |
| 20260504001056 | 11 | 198 | 1.6 | 22.5 | 0.00 | 0.00 | 0.00 | 64 | 1010.8 |
| 20260504000540 | 11 | 109 | 6.4 | 24.1 | 0.00 | 0.00 | 0.00 | 64 | 1010.7 |
| 20260504000048 | 12 | 161 | 8.0 | 24.1 | 0.00 | 0.00 | 0.00 | 64 | 1010.8 |
| 20260503235552 | 12 | 221 | 4.8 | 20.9 | 0.00 | 0.00 | 0.00 | 65 | 1010.8 |
| 20260503235037 | 12 | 222 | 3.2 | 8.0 | 0.00 | 0.00 | 0.00 | 64 | 1010.8 |
| 20260503234543 | 12 | 330 | 3.2 | 14.5 | 0.00 | 0.00 | 0.00 | 64 | 1010.8 |
| 20260503234116 | 12 | 298 | 3.2 | 14.5 | 0.00 | 0.00 | 0.00 | 64 | 1010.7 |
| 20260503233538 | 12 | 273 | 3.2 | 16.1 | 0.00 | 0.00 | 0.00 | 64 | 1010.7 |
| 20260503233100 | 13 | 350 | 4.8 | 16.1 | 0.00 | 0.00 | 0.00 | 62 | 1010.7 |
| 20260503232545 | 13 | 153 | 3.2 | 12.9 | 0.00 | 0.00 | 0.00 | 60 | 1010.7 |
| 20260503232050 | 13 | 281 | 4.8 | 12.9 | 0.00 | 0.00 | 0.00 | 61 | 1010.6 |
| 20260503231555 | 14 | 300 | 4.8 | 22.5 | 0.00 | 0.00 | 0.00 | 60 | 1010.5 |
| 20260503231041 | 14 | 327 | 8.0 | 22.5 | 0.00 | 0.00 | 0.00 | 58 | 1010.5 |
| 20260503230548 | 15 | 290 | 3.2 | 14.5 | 0.00 | 0.00 | 0.00 | 56 | 1010.4 |
| 20260503230052 | 15 | 317 | 4.8 | 14.5 | 0.00 | 0.00 | 0.00 | 48 | 1010.4 |
| 20260503225537 | 15 | 235 | 4.8 | 14.5 | 0.00 | 0.00 | 0.00 | 43 | 1010.3 |
| 20260503225042 | 15 | 177 | 4.8 | 16.1 | 0.00 | 0.00 | 0.00 | 44 | 1010.3 |
| 20260503224548 | 15 | 196 | 4.8 | 16.1 | 0.00 | 0.00 | 0.00 | 44 | 1010.3 |
| 20260503224054 | 15 | 26 | 4.8 | 19.3 | 0.00 | 0.00 | 0.00 | 42 | 1010.3 |
| 20260503223539 | 15 | 267 | 6.4 | 19.3 | 0.00 | 0.00 | 0.00 | 42 | 1010.4 |
| 20260503223046 | 16 | 261 | 6.4 | 14.5 | 0.00 | 0.00 | 0.00 | 42 | 1010.4 |
| 20260503222550 | 16 | 311 | 6.4 | 16.1 | 0.00 | 0.00 | 0.00 | 42 | 1010.4 |
| 20260503222037 | 16 | 272 | 4.8 | 16.1 | 0.00 | 0.00 | 0.00 | 42 | 1010.3 |
| 20260503221542 | 16 | 156 | 6.4 | 16.1 | 0.00 | 0.00 | 0.00 | 43 | 1010.4 |
| 20260503221043 | 16 | 300 | 3.2 | 16.1 | 0.00 | 0.00 | 0.00 | 43 | 1010.4 |
| 20260503220551 | 16 | 223 | 3.2 | 16.1 | 0.00 | 0.00 | 0.00 | 43 | 1010.3 |
| 20260503220056 | 16 | 166 | 4.8 | 16.1 | 0.00 | 0.00 | 0.00 | 42 | 1010.3 |
| 20260503215539 | 16 | 174 | 6.4 | 16.1 | 0.00 | 0.00 | 0.00 | 43 | 1010.4 |
| 20260503215045 | 16 | 279 | 3.2 | 19.3 | 0.00 | 0.00 | 0.00 | 42 | 1010.4 |
| 20260503214551 | 16 | 141 | 4.8 | 19.3 | 0.00 | 0.00 | 0.00 | 43 | 1010.5 |
| 20260503214036 | 16 | 339 | 1.6 | 16.1 | 0.00 | 0.00 | 0.00 | 43 | 1010.5 |
| 20260503213607 | 16 | 198 | 6.4 | 20.9 | 0.00 | 0.00 | 0.00 | 42 | 1010.6 |
| 20260503213053 | 16 | 182 | 6.4 | 20.9 | 0.00 | 0.00 | 0.00 | 42 | 1010.4 |
| 20260503212605 | 16 | 209 | 6.4 | 20.9 | 0.00 | 0.00 | 0.00 | 41 | 1010.6 |
| 20260503212049 | 16 | 269 | 4.8 | 22.5 | 0.00 | 0.00 | 0.00 | 42 | 1010.7 |
| 20260503211555 | 16 | 334 | 3.2 | 22.5 | 0.00 | 0.00 | 0.00 | 41 | 1010.6 |
| 20260503211100 | 16 | 180 | 8.0 | 29.0 | 0.00 | 0.00 | 0.00 | 42 | 1010.6 |
| 20260503210540 | 16 | 306 | 4.8 | 29.0 | 0.00 | 0.00 | 0.00 | 42 | 1010.7 |
| 20260503210048 | 16 | 272 | 4.8 | 16.1 | 0.00 | 0.00 | 0.00 | 42 | 1010.8 |
| 20260503205536 | 16 | 250 | 8.0 | 22.5 | 0.00 | 0.00 | 0.00 | 40 | 1010.7 |
| 20260503205043 | 17 | 298 | 4.8 | 22.5 | 0.00 | 0.00 | 0.00 | 40 | 1010.8 |
| 20260503204549 | 16 | 305 | 3.2 | 17.7 | 0.00 | 0.00 | 0.00 | 41 | 1011.0 |
| 20260503204052 | 16 | 251 | 4.8 | 27.4 | 0.00 | 0.00 | 0.00 | 40 | 1010.9 |
| 20260503203539 | 17 | 328 | 6.4 | 27.4 | 0.00 | 0.00 | 0.00 | 39 | 1010.9 |
| 20260503203049 | 17 | 169 | 6.4 | 19.3 | 0.00 | 0.00 | 0.00 | 42 | 1010.9 |
| 20260503202554 | 17 | 182 | 9.7 | 20.9 | 0.00 | 0.00 | 0.00 | 41 | 1010.7 |
| 20260503202040 | 17 | 269 | 6.4 | 19.3 | 0.00 | 0.00 | 0.00 | 41 | 1010.9 |
| 20260503201549 | 17 | 181 | 8.0 | 19.3 | 0.00 | 0.00 | 0.00 | 39 | 1010.8 |
| 20260503201055 | 17 | 275 | 6.4 | 19.3 | 0.00 | 0.00 | 0.00 | 39 | 1010.9 |
| 20260503200601 | 17 | 268 | 3.2 | 22.5 | 0.00 | 0.00 | 0.00 | 44 | 1011.0 |
| 20260503200046 | 17 | 211 | 4.8 | 22.5 | 0.00 | 0.00 | 0.00 | 40 | 1011.1 |
| 20260503195554 | 17 | 279 | 3.2 | 22.5 | 0.00 | 0.00 | 0.00 | 42 | 1011.2 |
| 20260503195040 | 17 | 340 | 8.0 | 22.5 | 0.00 | 0.00 | 0.00 | 41 | 1011.2 |
| 20260503194602 | 17 | 240 | 6.4 | 14.5 | 0.00 | 0.00 | 0.00 | 40 | 1011.3 |
| 20260503194111 | 17 | 263 | 3.2 | 14.5 | 0.00 | 0.00 | 0.00 | 40 | 1011.4 |
| 20260503193536 | 17 | 297 | 3.2 | 14.5 | 0.00 | 0.00 | 0.00 | 41 | 1011.5 |
| 20260503193040 | 17 | 227 | 4.8 | 17.7 | 0.00 | 0.00 | 0.00 | 40 | 1011.6 |
| 20260503192549 | 17 | 280 | 3.2 | 29.0 | 0.00 | 0.00 | 0.00 | 41 | 1011.6 |
| 20260503192053 | 17 | 220 | 6.4 | 29.0 | 0.00 | 0.00 | 0.00 | 41 | 1011.6 |
| 20260503191538 | 17 | 198 | 4.8 | 19.3 | 0.00 | 0.00 | 0.00 | 41 | 1011.8 |
| 20260503191045 | 17 | 269 | 6.4 | 20.9 | 0.00 | 0.00 | 0.00 | 41 | 1011.9 |
| 20260503190551 | 17 | 171 | 6.4 | 20.9 | 0.00 | 0.00 | 0.00 | 39 | 1011.9 |
| 20260503190057 | 17 | 350 | 4.8 | 19.3 | 0.00 | 0.00 | 0.00 | 40 | 1012.0 |
| 20260503185545 | 16 | 271 | 4.8 | 19.3 | 0.00 | 0.00 | 0.00 | 40 | 1012.0 |
| 20260503185051 | 17 | 251 | 9.7 | 17.7 | 0.00 | 0.00 | 0.00 | 38 | 1012.2 |
| 20260503184537 | 17 | 207 | 1.6 | 25.7 | 0.00 | 0.00 | 0.00 | 41 | 1012.1 |
| 20260503184042 | 17 | 257 | 3.2 | 25.7 | 0.00 | 0.00 | 0.00 | 40 | 1012.0 |
| 20260503183548 | 17 | 240 | 6.4 | 14.5 | 0.00 | 0.00 | 0.00 | 40 | 1012.2 |
| 20260503183050 | 17 | 290 | 4.8 | 14.5 | 0.00 | 0.00 | 0.00 | 39 | 1012.3 |
| 20260503182537 | 17 | 136 | 4.8 | 16.1 | 0.00 | 0.00 | 0.00 | 39 | 1012.3 |
| 20260503182105 | 17 | 169 | 4.8 | 20.9 | 0.00 | 0.00 | 0.00 | 42 | 1012.3 |
| 20260503181551 | 17 | 165 | 8.0 | 22.5 | 0.00 | 0.00 | 0.00 | 39 | 1012.5 |
| 20260503181057 | 17 | 34 | 6.4 | 22.5 | 0.00 | 0.00 | 0.00 | 40 | 1012.5 |
| 20260503180606 | 17 | 236 | 3.2 | 14.5 | 0.00 | 0.00 | 0.00 | 42 | 1012.6 |
| 20260503180049 | 17 | 5 | 4.8 | 19.3 | 0.00 | 0.00 | 0.00 | 41 | 1012.6 |
| 20260503175555 | 17 | 207 | 4.8 | 19.3 | 0.00 | 0.00 | 0.00 | 41 | 1012.7 |
| 20260503175104 | 17 | 322 | 4.8 | 14.5 | 0.00 | 0.00 | 0.00 | 42 | 1012.8 |
| 20260503174548 | 17 | 229 | 4.8 | 14.5 | 0.00 | 0.00 | 0.00 | 42 | 1012.9 |
| 20260503174039 | 16 | 64 | 4.8 | 16.1 | 0.00 | 0.00 | 0.00 | 39 | 1012.9 |
| 20260503173601 | 16 | 188 | 6.4 | 19.3 | 0.00 | 0.00 | 0.00 | 42 | 1012.9 |
| 20260503173045 | 16 | 276 | 3.2 | 19.3 | 0.00 | 0.00 | 0.00 | 43 | 1013.0 |
| 20260503172552 | 16 | 277 | 6.4 | 16.1 | 0.00 | 0.00 | 0.00 | 41 | 1013.1 |
| 20260503172037 | 16 | 178 | 4.8 | 17.7 | 0.00 | 0.00 | 0.00 | 40 | 1013.1 |
| 20260503171603 | 16 | 257 | 6.4 | 22.5 | 0.00 | 0.00 | 0.00 | 43 | 1013.1 |
| 20260503171049 | 16 | 107 | 4.8 | 22.5 | 0.00 | 0.00 | 0.00 | 43 | 1013.3 |
| 20260503170554 | 16 | 91 | 3.2 | 14.5 | 0.00 | 0.00 | 0.00 | 47 | 1013.3 |
| 20260503150551 | 13 | 333 | 1.6 | 11.3 | 0.00 | 0.00 | 0.00 | 54 | 1014.4 |
| 20260503140111 | 11 | 142 | 3.2 | 11.3 | 0.00 | 0.00 | 0.00 | 56 | 1014.8 |
| 20260503131107 | 8 | 271 | 1.6 | 9.7 | 0.00 | 0.00 | 0.00 | 66 | 1014.9 |
| 20260503130553 | 8 | 187 | 3.2 | 9.7 | 0.00 | 0.00 | 0.00 | 65 | 1014.9 |
| 20260503110546 | 2 | 175 | 0.0 | 4.8 | 0.00 | 0.00 | 0.00 | 79 | 1015.0 |
| 20260503081558 | 2 | 218 | 0.0 | 3.2 | 0.00 | 0.00 | 0.00 | 77 | 1015.1 |
| 20260503081043 | 2 | 236 | 0.0 | 3.2 | 0.00 | 0.00 | 0.00 | 78 | 1015.2 |
| 20260503080547 | 2 | 262 | 1.6 | 6.4 | 0.00 | 0.00 | 0.00 | 77 | 1015.2 |
| 20260503072552 | 2 | 238 | 0.0 | 3.2 | 0.00 | 0.00 | 0.00 | 77 | 1015.2 |
| 20260503072037 | 2 | 254 | 0.0 | 3.2 | 0.00 | 0.00 | 0.00 | 76 | 1015.2 |
| 20260503071545 | 3 | 240 | 0.0 | 3.2 | 0.00 | 0.00 | 0.00 | 76 | 1015.2 |
| 20260503071051 | 3 | 275 | 0.0 | 1.6 | 0.00 | 0.00 | 0.00 | 76 | 1015.3 |
| 20260503070556 | 3 | 244 | 0.0 | 3.2 | 0.00 | 0.00 | 0.00 | 75 | 1015.4 |
| 20260503055048 | 3 | 237 | 1.6 | 4.8 | 0.00 | 0.00 | 0.00 | 72 | 1015.6 |
| 20260503054536 | 3 | 227 | 0.0 | 3.2 | 0.00 | 0.00 | 0.00 | 72 | 1015.6 |
| 20260503054102 | 4 | 234 | 1.6 | 3.2 | 0.00 | 0.00 | 0.00 | 72 | 1015.7 |
| 20260503053614 | 4 | 292 | 0.0 | 1.6 | 0.00 | 0.00 | 0.00 | 72 | 1015.6 |
| 20260503053037 | 4 | 295 | 0.0 | 1.6 | 0.00 | 0.00 | 0.00 | 72 | 1015.7 |
| 20260503052544 | 4 | 295 | 0.0 | 1.6 | 0.00 | 0.00 | 0.00 | 72 | 1015.7 |
| 20260503052049 | 4 | 248 | 0.0 | 4.8 | 0.00 | 0.00 | 0.00 | 72 | 1015.7 |
| 20260503051536 | 4 | 248 | 0.0 | 4.8 | 0.00 | 0.00 | 0.00 | 72 | 1015.7 |
| 20260503051041 | 4 | 301 | 0.0 | 3.2 | 0.00 | 0.00 | 0.00 | 72 | 1015.7 |
| 20260503050610 | 4 | 301 | 0.0 | 3.2 | 0.00 | 0.00 | 0.00 | 71 | 1015.7 |
| 20260503050053 | 4 | 260 | 0.0 | 3.2 | 0.00 | 0.00 | 0.00 | 71 | 1015.8 |
| 20260503045538 | 5 | 273 | 0.0 | 1.6 | 0.00 | 0.00 | 0.00 | 71 | 1015.8 |
| 20260503045043 | 5 | 263 | 0.0 | 1.6 | 0.00 | 0.00 | 0.00 | 70 | 1015.7 |
| 20260503044544 | 5 | 263 | 0.0 | 3.2 | 0.00 | 0.00 | 0.00 | 70 | 1015.7 |
| 20260503044115 | 5 | 261 | 0.0 | 3.2 | 0.00 | 0.00 | 0.00 | 70 | 1015.7 |
| 20260503043559 | 5 | 225 | 1.6 | 3.2 | 0.00 | 0.00 | 0.00 | 70 | 1015.6 |
| 20260503043044 | 5 | 227 | 0.0 | 3.2 | 0.00 | 0.00 | 0.00 | 69 | 1015.6 |
| 20260503042551 | 5 | 274 | 0.0 | 3.2 | 0.00 | 0.00 | 0.00 | 69 | 1015.7 |
| 20260503042048 | 5 | 248 | 0.0 | 3.2 | 0.00 | 0.00 | 0.00 | 68 | 1015.7 |
| 20260503041554 | 5 | 244 | 0.0 | 1.6 | 0.00 | 0.00 | 0.00 | 68 | 1015.7 |
| 20260503041104 | 5 | 221 | 0.0 | 3.2 | 0.00 | 0.00 | 0.00 | 67 | 1015.7 |
| 20260503040613 | 5 | 221 | 1.6 | 3.2 | 0.00 | 0.00 | 0.00 | 67 | 1015.8 |
| 20260503040036 | 6 | 225 | 0.0 | 3.2 | 0.00 | 0.00 | 0.00 | 66 | 1015.7 |
| 20260503035538 | 6 | 225 | 0.0 | 4.8 | 0.00 | 0.00 | 0.00 | 66 | 1015.8 |
| 20260503035058 | 6 | 196 | 0.0 | 4.8 | 0.00 | 0.00 | 0.00 | 65 | 1015.8 |
| 20260503034545 | 6 | 232 | 0.0 | 4.8 | 0.00 | 0.00 | 0.00 | 65 | 1015.9 |
| 20260503034051 | 6 | 226 | 0.0 | 1.6 | 0.00 | 0.00 | 0.00 | 65 | 1015.8 |
| 20260503033536 | 6 | 255 | 0.0 | 3.2 | 0.00 | 0.00 | 0.00 | 65 | 1015.8 |
| 20260503033041 | 6 | 243 | 0.0 | 3.2 | 0.00 | 0.00 | 0.00 | 65 | 1015.8 |
| 20260503032547 | 6 | 208 | 0.0 | 4.8 | 0.00 | 0.00 | 0.00 | 64 | 1015.8 |
| 20260503032052 | 6 | 195 | 0.0 | 4.8 | 0.00 | 0.00 | 0.00 | 65 | 1015.8 |
| 20260503031539 | 6 | 248 | 1.6 | 4.8 | 0.00 | 0.00 | 0.00 | 65 | 1015.8 |
| 20260503031043 | 6 | 250 | 0.0 | 3.2 | 0.00 | 0.00 | 0.00 | 65 | 1015.8 |
| 20260503030549 | 6 | 250 | 0.0 | 4.8 | 0.00 | 0.00 | 0.00 | 65 | 1015.8 |
| 20260503030035 | 6 | 250 | 0.0 | 4.8 | 0.00 | 0.00 | 0.00 | 65 | 1015.9 |
| 20260503025539 | 6 | 240 | 0.0 | 3.2 | 0.00 | 0.00 | 0.00 | 65 | 1015.9 |
| 20260503025045 | 6 | 227 | 0.0 | 3.2 | 0.00 | 0.00 | 0.00 | 65 | 1016.0 |
| 20260503024551 | 6 | 216 | 0.0 | 1.6 | 0.00 | 0.00 | 0.00 | 65 | 1016.0 |
| 20260503024057 | 6 | 229 | 0.0 | 0.0 | 0.00 | 0.00 | 0.00 | 65 | 1016.1 |
| 20260503023537 | 6 | 229 | 0.0 | 1.6 | 0.00 | 0.00 | 0.00 | 65 | 1016.0 |
| 20260503023041 | 6 | 229 | 0.0 | 3.2 | 0.00 | 0.00 | 0.00 | 65 | 1016.0 |
| 20260503022612 | 6 | 229 | 0.0 | 4.8 | 0.00 | 0.00 | 0.00 | 64 | 1016.0 |
| 20260503022057 | 6 | 229 | 1.6 | 4.8 | 0.00 | 0.00 | 0.00 | 64 | 1016.1 |
| 20260503021545 | 6 | 242 | 0.0 | 1.6 | 0.00 | 0.00 | 0.00 | 64 | 1016.1 |
| 20260503021050 | 6 | 232 | 0.0 | 4.8 | 0.00 | 0.00 | 0.00 | 63 | 1016.0 |
| 20260503020535 | 6 | 232 | 0.0 | 4.8 | 0.00 | 0.00 | 0.00 | 62 | 1015.9 |
| 20260503020041 | 6 | 229 | 0.0 | 1.6 | 0.00 | 0.00 | 0.00 | 63 | 1015.9 |
| 20260503015545 | 6 | 229 | 0.0 | 1.6 | 0.00 | 0.00 | 0.00 | 62 | 1016.0 |
| 20260503015052 | 6 | 229 | 0.0 | 1.6 | 0.00 | 0.00 | 0.00 | 63 | 1015.9 |
| 20260503014538 | 6 | 229 | 0.0 | 1.6 | 0.00 | 0.00 | 0.00 | 62 | 1016.0 |
| 20260503014110 | 7 | 229 | 0.0 | 1.6 | 0.00 | 0.00 | 0.00 | 63 | 1015.9 |
| 20260503013535 | 7 | 229 | 0.0 | 1.6 | 0.00 | 0.00 | 0.00 | 62 | 1015.9 |
| 20260503013040 | 7 | 229 | 0.0 | 1.6 | 0.00 | 0.00 | 0.00 | 62 | 1015.9 |
| 20260503012601 | 7 | 229 | 0.0 | 1.6 | 0.00 | 0.00 | 0.00 | 61 | 1015.9 |
| 20260503012108 | 7 | 229 | 0.0 | 1.6 | 0.00 | 0.00 | 0.00 | 61 | 1015.9 |
| 20260503011534 | 7 | 229 | 0.0 | 0.0 | 0.00 | 0.00 | 0.00 | 61 | 1015.8 |
| 20260503011038 | 7 | 229 | 0.0 | 1.6 | 0.00 | 0.00 | 0.00 | 61 | 1015.8 |
| 20260503010607 | 7 | 229 | 0.0 | 3.2 | 0.00 | 0.00 | 0.00 | 60 | 1015.8 |
| 20260503010052 | 7 | 229 | 0.0 | 3.2 | 0.00 | 0.00 | 0.00 | 60 | 1015.8 |
| 20260503005557 | 7 | 334 | 0.0 | 1.6 | 0.00 | 0.00 | 0.00 | 60 | 1015.7 |
| 20260503005101 | 7 | 334 | 0.0 | 0.0 | 0.00 | 0.00 | 0.00 | 60 | 1015.7 |
| 20260503004611 | 7 | 334 | 0.0 | 0.0 | 0.00 | 0.00 | 0.00 | 59 | 1015.7 |
| 20260503004034 | 7 | 334 | 0.0 | 0.0 | 0.00 | 0.00 | 0.00 | 58 | 1015.8 |
| 20260503003535 | 7 | 334 | 0.0 | 0.0 | 0.00 | 0.00 | 0.00 | 58 | 1015.8 |
| 20260503003040 | 7 | 334 | 0.0 | 1.6 | 0.00 | 0.00 | 0.00 | 58 | 1015.7 |